Sandy Hook Coast Guard Station, New Jersey, United States
Lat: 40.47N, Lon: 74.02W
Wx Zone: K56N
Local Info
Past Weather Observations for Today

NOTE: This archive is for the closest National Weather Service station to Sandy Hook Coast Guard Station. Information may differ from the station used for current weather conditions.

Click here for Long-term Archive

Time Weather Temperature Dewpoint Humidity Pressure Winds Precip Visibility
18:51
Overcast
Light Rain
50°F / 10°C 48°F / 9°C 94% 29.77 in
(1008 mb)
E 9.2 mph
(E 15 kph)
0.01 in
(0.25 mm)
4SM
17:51
Overcast
Drizzle
52°F / 11°C 48°F / 9°C 88% 29.77 in
(1008 mb)
E 9.2 mph
(E 15 kph)
0.00 in
(0.00 mm)
7SM
16:51
Overcast
Drizzle
52°F / 11°C 48°F / 9°C 88% 29.74 in
(1007 mb)
E 10.4 mph
(E 17 kph)
0.00 in
(0.00 mm)
9SM
16:11
Overcast
54°F / 12°C 48°F / 9°C 82% 29.74 in
(1007 mb)
E 12.7 mph
(E 20 kph)
- 10SM
15:51
Overcast
54°F / 12°C 48°F / 9°C 82% 29.74 in
(1007 mb)
E 16.1 mph
(E 26 kph)
- 10SM
14:51
Overcast
54°F / 12°C 48°F / 9°C 82% 29.74 in
(1007 mb)
ENE 11.5 mph
(ENE 19 kph)
- 10SM
13:51
Overcast
54°F / 12°C 50°F / 10°C 88% 29.71 in
(1006 mb)
ENE 10.4 mph
(ENE 17 kph)
0.00 in
(0.00 mm)
10SM
13:15
Overcast
Drizzle
52°F / 11°C 50°F / 10°C 94% 29.71 in
(1006 mb)
ENE 12.7 mph
(ENE 20 kph)
0.00 in
(0.00 mm)
8SM
12:51
Overcast
Fog And Mist
52°F / 11°C 50°F / 10°C 94% 29.71 in
(1006 mb)
ENE 9.2 mph
(ENE 15 kph)
0.01 in
(0.25 mm)
2 1/2SM
12:35
Overcast
Light Rain
52°F / 11°C 50°F / 10°C 94% 29.71 in
(1006 mb)
NE 8.1 mph
(NE 13 kph)
0.01 in
(0.25 mm)
2 1/2SM
11:51
Overcast
Light Rain
50°F / 10°C 48°F / 9°C 94% 29.71 in
(1006 mb)
NE 11.5 mph
(NE 19 kph)
0.01 in
(0.25 mm)
2 1/2SM
11:38
Overcast
Light Rain
50°F / 10°C 48°F / 9°C 94% 29.74 in
(1007 mb)
NE 11.5 mph
(NE 19 kph)
0.01 in
(0.25 mm)
2 1/2SM
11:03
Overcast
Light Rain
50°F / 10°C 46°F / 8°C 88% 29.74 in
(1007 mb)
ENE 12.7 mph
(ENE 20 kph)
0.01 in
(0.25 mm)
5SM
10:51
Overcast
Light Rain
50°F / 10°C 46°F / 8°C 88% 29.71 in
(1006 mb)
ENE 12.7 mph
(ENE 20 kph)
0.01 in
(0.25 mm)
10SM
10:49
Overcast
Light Rain
50°F / 10°C 46°F / 8°C 88% 29.71 in
(1006 mb)
ENE 10.4 mph
(ENE 17 kph)
0.01 in
(0.25 mm)
10SM
10:20
Overcast
Light Rain
50°F / 10°C 48°F / 9°C 94% 29.74 in
(1007 mb)
NE 10.4 mph
(NE 17 kph)
0.01 in
(0.25 mm)
3SM
09:51
Overcast
Rain
48°F / 9°C 46°F / 8°C 94% 29.71 in
(1006 mb)
ENE 16.1 mph
(ENE 26 kph)
0.14 in
(3.56 mm)
2SM
09:06
Overcast
Heavy Rain
50°F / 10°C 48°F / 9°C 94% 29.68 in
(1005 mb)
NE 13.8 mph
(NE 22 kph)
0.06 in
(1.52 mm)
2 1/2SM
08:51
Overcast
Heavy Rain
50°F / 10°C 48°F / 9°C 94% 29.71 in
(1006 mb)
NE 11.5 mph
(NE 19 kph)
0.05 in
(1.27 mm)
3SM
07:59
Overcast
Light Rain
48°F / 9°C 46°F / 8°C 94% 29.68 in
(1005 mb)
NE 16.1 mph
(NE 26 kph)
0.00 in
(0.00 mm)
3SM
07:51
Overcast
Light Rain
48°F / 9°C 46°F / 8°C 94% 29.68 in
(1005 mb)
NE 16.1 mph
(NE 26 kph)
0.19 in
(4.83 mm)
2 1/2SM
07:14
Overcast
Heavy Rain
48°F / 9°C 46°F / 8°C 94% 29.71 in
(1006 mb)
NE 11.5 mph
(NE 19 kph)
0.05 in
(1.27 mm)
2 1/2SM
06:51
Overcast
Light Rain
48°F / 9°C 46°F / 8°C 94% 29.68 in
(1005 mb)
NE 10.4 mph
(NE 17 kph)
0.07 in
(1.78 mm)
3SM
06:44
Overcast
Light Rain
48°F / 9°C 46°F / 8°C 94% 29.68 in
(1005 mb)
NE 13.8 mph
(NE 22 kph)
0.06 in
(1.52 mm)
3SM
06:08
Overcast
Light Rain
50°F / 10°C 46°F / 8°C 88% 29.68 in
(1005 mb)
NE 12.7 mph
(NE 20 kph)
0.01 in
(0.25 mm)
6SM
05:51
Overcast
Rain
48°F / 9°C 46°F / 8°C 94% 29.68 in
(1005 mb)
NE 11.5 mph
(NE 19 kph)
0.05 in
(1.27 mm)
5SM
05:25
Overcast
Light Rain
50°F / 10°C 46°F / 8°C 88% 29.68 in
(1005 mb)
NE 15 mph
(NE 24 kph)
0.02 in
(0.51 mm)
7SM
04:51
Overcast
Rain
48°F / 9°C 46°F / 8°C 94% 29.68 in
(1005 mb)
NE 8.1 mph
(NE 13 kph)
0.06 in
(1.52 mm)
5SM
04:24
Overcast
Light Rain
50°F / 10°C 46°F / 8°C 88% 29.68 in
(1005 mb)
ENE 6.9 mph
(ENE 11 kph)
0.02 in
(0.51 mm)
10SM
04:05
Overcast
Light Rain
50°F / 10°C 46°F / 8°C 88% 29.68 in
(1005 mb)
NE 8.1 mph
(NE 13 kph)
0.01 in
(0.25 mm)
10SM
03:51
Overcast
Light Rain
50°F / 10°C 46°F / 8°C 88% 29.65 in
(1004 mb)
NE 10.4 mph
(NE 17 kph)
0.01 in
(0.25 mm)
10SM
02:51
Overcast
Light Rain
50°F / 10°C 45°F / 7°C 82% 29.65 in
(1004 mb)
NE 9.2 mph
(NE 15 kph)
0.01 in
(0.25 mm)
10SM
02:38
Overcast
Light Rain
52°F / 11°C 45°F / 7°C 77% 29.68 in
(1005 mb)
NE 12.7 mph
(NE 20 kph)
0.01 in
(0.25 mm)
10SM
01:51
Overcast
54°F / 12°C 45°F / 7°C 72% 29.68 in
(1005 mb)
NE 8.1 mph
(NE 13 kph)
- 10SM
00:51
Overcast
52°F / 11°C 45°F / 7°C 77% 29.68 in
(1005 mb)
NNE 10.4 mph
(NNE 17 kph)
- 10SM
Time Weather Temperature Dewpoint Humidity Pressure Winds Precip Visibility


Weather for websites

WeatherForYou.com, LLC is not responsible for any damages or problems caused by this service. Current weather conditions are obtained from the closest station including government and personal stations which may have varying degrees of accuracy. Weather forecasts are derived from the NOAA NDFD. Like all things, this site belongs to Jesus Christ... He just trusts us to maintain it. If you have any questions or comments email webmaster@weatherforyou.com

Copyright © 2016, WeatherForYou.com LLC. All rights reserved.